Wetbulb
67.11 67.71 63.86 61.24 55.32 55.23 51.95 53.48 58.49 59.77 60.68 63.83 64.88 62.55 59.51 61.82 60.07 55.98 70.11 71.55 72.08 72.29 73.46 74.04 75.53 75.13 73.93 73.87 74.68 74.96 74.86 74.78 75.38 75.54 75.49 75.66 75.89 76.09 76.04 75.89 75.76 74.94 74.26 74.06 73.74 73.40 73.21 73.08 72.89
61.03 62.47 60.71 56.52 50.59 47.52 51.14 58.22 57.95 60.31 62.76 65.01 64.88 63.04 61.47 61.14 67.87 68.52 68.81 71.26 71.90 71.82 71.86 72.82 75.23 74.13 74.00 74.58 74.69 75.19 74.79 74.60 74.77 75.01 75.11 75.59 75.94 75.84 75.28 75.54 75.40 74.21 73.43 72.92 72.65 72.43 72.35 72.43 72.61
65.46 61.40 54.17 50.64 45.81 46.99 50.55 58.90 59.73 62.21 63.81 62.76 61.43 65.19 63.81 64.25 68.57 69.55 71.14 71.30 71.29 70.87 71.43 72.67 74.84 75.14 74.33 74.56 74.36 74.89 74.94 74.70 74.76 75.49 75.21 75.03 75.16 75.29 75.42 75.04 74.90 73.57 72.77 72.11 72.11 71.83 72.03 72.43 72.83
55.27 55.42 53.27 47.88 44.73 50.27 55.46 59.73 61.76 62.27 63.33 63.45 63.44 59.89 64.00 70.89 70.07 71.04 72.18 71.68 70.66 70.56 71.38 73.96 74.69 74.99 74.36 74.23 74.23 74.49 74.94 74.88 74.65 74.87 75.01 74.79 74.84 74.71 74.99 74.56 74.20 72.93 72.19 72.16 71.99 72.53 73.04 73.25 73.70
53.20 50.75 45.67 43.24 51.75 57.78 60.24 61.17 62.80 59.93 60.72 60.52 61.75 60.19 64.72 70.42 72.10 72.14 71.97 71.73 70.47 70.79 71.47 72.27 74.36 74.61 74.38 74.20 74.20 74.26 74.81 74.74 74.91 74.98 74.28 74.36 74.31 74.16 74.39 73.73 73.15 73.02 72.78 72.50 72.67 73.37 74.08 74.26 74.13
46.90 48.59 42.51 42.06 53.75 58.96 60.56 62.50 62.17 61.99 62.76 61.97 61.41 61.75 62.98 70.82 70.97 71.85 72.39 71.12 71.46 70.89 70.89 71.58 74.19 74.34 74.64 74.34 74.26 74.67 74.84 74.72 74.96 75.01 74.41 74.27 74.19 74.09 74.02 74.11 73.68 73.42 73.41 73.22 73.21 74.30 74.13 74.11 74.14
44.75 43.96 41.57 43.79 54.29 57.49 59.84 62.00 58.17 59.09 60.94 62.95 65.13 59.50 62.72 68.96 71.58 71.98 71.44 71.32 71.31 71.08 70.19 70.08 71.26 72.30 74.01 74.27 74.24 74.12 74.51 74.64 74.93 74.83 74.78 74.39 74.22 74.24 74.29 74.51 74.34 74.39 74.62 74.49 74.18 74.21 74.04 73.94 74.22
47.08 45.15 41.87 41.66 50.09 55.41 60.66 60.49 61.12 60.60 60.90 65.99 67.34 59.76 59.60 68.16 71.42 71.19 71.14 70.87 70.43 70.32 69.99 68.43 68.88 70.06 70.80 71.20 74.22 74.19 73.99 74.14 74.78 74.48 74.43 74.75 74.39 74.44 74.39 74.47 74.30 74.49 75.04 74.74 74.49 74.41 74.16 74.07 73.79
46.40 40.72 39.39 41.76 55.72 56.38 60.34 58.87 63.55 62.90 61.00 61.37 63.45 64.51 66.92 70.55 70.86 69.68 69.13 69.06 69.73 70.63 69.22 68.35 68.31 67.21 68.70 69.56 72.09 73.91 74.09 74.07 74.04 73.91 74.36 73.54 71.13 70.62 72.25 73.49 74.46 74.59 74.74 74.66 74.84 74.66 74.57 74.42 74.39
43.34 39.73 48.32 58.51 60.97 59.17 62.10 60.67 60.24 59.98 58.80 59.68 62.70 63.65 65.11 64.87 63.97 63.20 62.96 61.31 60.98 62.60 64.17 64.28 67.03 68.46 68.60 70.64 69.80 69.85 70.68 70.65 71.20 71.31 70.83 71.20 69.78 69.46 70.35 72.33 74.32 74.89 74.89 75.21 75.21 74.99 75.34 75.04 71.49
41.58 41.29 58.70 61.65 62.36 61.22 58.78 59.96 63.24 59.64 58.39 61.18 58.98 59.09 60.25 60.29 59.84 59.72 59.24 58.95 58.30 59.01 59.96 60.47 62.50 65.63 67.29 67.98 69.12 68.59 69.24 69.60 69.69 69.84 69.39 68.85 69.70 68.67 68.42 69.11 69.71 70.83 72.69 72.37 72.21 71.09 70.00 68.58 68.53
40.03 46.55 61.71 61.96 62.68 60.73 60.39 62.06 59.61 60.04 58.45 60.37 59.47 59.13 58.43 57.18 56.54 57.01 57.36 57.47 57.37 56.82 57.78 58.80 59.39 59.92 63.01 67.09 68.50 68.39 67.48 67.84 67.82 67.98 67.96 67.70 68.37 68.71 67.20 67.79 67.31 67.56 69.24 69.45 69.60 68.48 67.99 67.07 67.82
42.25 50.99 62.70 63.34 61.92 61.67 60.35 57.19 55.61 54.75 57.25 58.19 58.22 57.58 56.37 55.60 55.44 55.88 56.63 56.42 56.01 55.08 55.74 56.22 56.93 57.61 59.41 60.31 62.31 67.57 68.53 67.13 66.45 66.82 67.04 68.01 67.78 67.16 68.19 66.68 66.81 66.44 65.95 66.07 66.03 65.27 65.29 65.15 67.20
44.82 58.52 60.68 61.31 59.54 58.09 55.80 55.76 55.26 54.49 56.00 54.88 54.54 53.73 54.45 54.48 54.37 54.29 54.13 53.83 54.19 54.40 54.28 55.22 55.64 55.54 56.98 57.97 59.67 65.86 67.23 66.17 64.07 61.67 62.17 63.22 64.30 65.72 68.77 66.86 66.98 68.23 69.38 68.62 67.27 66.58 64.55 62.93 63.52
49.60 53.86 55.81 56.69 56.69 55.68 55.52 51.10 51.50 54.23 54.76 52.97 52.51 52.29 52.82 53.52 53.66 52.86 53.18 52.63 52.96 53.59 54.02 53.74 55.36 55.10 55.04 56.65 58.90 61.23 61.55 59.90 58.90 58.34 58.81 60.31 61.17 62.57 63.91 63.44 62.76 64.21 65.57 65.20 65.58 65.45 67.09 67.89 68.80
44.09 50.48 46.35 53.67 55.74 55.76 52.96 45.32 51.80 53.50 52.40 51.11 52.19 51.72 51.29 51.45 52.37 53.14 53.47 52.80 53.13 52.97 53.02 53.55 54.98 54.11 53.94 54.93 56.69 58.55 58.28 57.65 56.97 56.89 57.88 58.98 58.47 58.08 58.14 58.60 57.07 60.01 60.33 60.31 61.39 62.19 62.45 63.09 66.77
40.05 38.40 42.86 50.39 54.31 54.18 51.17 46.37 51.85 53.06 51.80 50.35 50.37 50.17 50.44 50.26 50.72 51.74 52.85 52.70 52.81 52.64 52.57 52.24 53.12 52.87 53.34 53.73 55.12 55.67 55.95 56.52 55.54 56.33 57.27 57.58 58.13 56.95 55.81 55.65 55.68 56.63 56.81 56.60 56.93 58.59 60.05 60.71 60.76
36.64 37.33 38.43 46.16 51.98 50.45 48.00 47.49 51.30 52.10 51.22 49.63 48.81 48.79 48.94 49.51 49.85 52.41 52.86 53.31 53.27 52.52 52.46 51.85 52.05 51.98 52.71 53.11 53.96 55.58 55.14 55.83 54.63 55.76 56.13 55.18 57.46 57.02 55.74 55.26 55.23 55.16 55.37 55.52 56.36 55.99 57.01 60.02 57.15
41.61 40.64 39.54 44.52 51.26 47.50 47.44 48.27 49.93 51.20 50.01 47.96 47.33 46.91 47.00 47.96 50.26 52.17 52.86 53.32 52.62 52.19 51.47 51.36 50.61 50.41 51.68 51.98 51.83 53.17 51.85 52.23 53.05 54.30 54.80 55.78 55.18 54.20 53.47 53.64 53.39 54.09 53.79 54.35 53.97 54.07 54.12 56.13 56.03
41.93 40.41 39.92 45.97 48.50 47.26 47.10 47.37 48.55 49.78 48.91 48.03 47.17 46.63 46.75 46.74 47.41 49.57 50.27 51.05 51.03 50.45 50.26 50.07 49.98 49.65 50.20 50.54 50.83 51.97 52.33 51.89 52.48 51.67 51.80 53.56 52.25 52.36 51.93 50.74 50.83 50.98 50.76 50.68 51.61 52.03 51.72 54.06 55.10
42.12 39.95 40.41 44.12 47.60 47.75 46.88 42.87 45.96 47.86 47.98 48.73 47.77 47.20 46.78 46.01 45.65 47.35 48.22 48.67 49.43 49.28 49.43 49.57 50.53 51.14 49.58 49.75 49.87 49.08 49.33 49.45 49.04 48.88 49.34 51.12 50.84 50.64 49.65 49.49 48.83 48.37 47.82 46.99 47.84 48.18 48.28 47.76 50.54
40.29 45.76 45.34 46.63 42.87 38.62 45.07 35.14 41.25 44.62 45.48 46.54 45.54 44.88 44.90 45.49 45.78 46.48 47.28 46.94 48.04 48.50 49.19 49.35 49.34 49.73 50.15 49.35 48.08 46.55 46.30 45.78 45.86 45.98 46.87 48.14 48.90 48.57 48.44 47.86 47.38 46.63 46.32 45.06 45.65 46.75 46.11 45.51 44.99
44.38 47.80 44.97 46.63 41.89 40.45 41.34 36.36 38.22 44.89 41.10 42.74 42.82 44.20 44.78 45.14 45.10 44.97 45.74 46.95 47.50 48.16 47.84 48.33 48.13 48.59 48.38 48.06 47.43 46.74 45.93 45.30 45.61 45.29 45.03 44.77 46.29 47.15 47.11 46.32 45.70 45.32 45.44 44.73 44.13 44.14 43.61 44.17 43.31
48.22 43.89 42.09 41.17 40.02 34.03 40.40 40.12 35.30 41.63 44.54 42.32 43.22 44.07 44.54 44.24 43.85 44.03 45.19 46.38 46.46 47.26 47.87 47.64 47.38 46.57 47.94 47.77 47.34 46.16 45.50 44.31 43.94 43.42 43.02 42.97 43.52 44.40 44.85 45.14 43.99 44.02 43.38 43.13 42.61 42.29 41.43 41.02 40.95
44.00 37.81 32.79 32.33 30.97 32.93 40.91 38.70 37.75 44.44 46.57 44.63 42.56 43.09 43.61 44.12 43.36 43.69 43.38 43.10 44.22 45.00 45.77 46.62 45.91 45.21 46.63 46.66 46.44 46.12 45.51 45.24 43.87 43.19 42.57 41.79 41.70 42.17 42.00 42.29 42.09 42.18 42.24 42.39 41.32 40.33 39.79 39.46 39.14
42.44 39.54 35.18 28.96 31.66 35.68 40.37 36.02 37.67 44.29 47.18 45.10 43.95 43.42 43.74 41.77 42.35 42.76 43.14 42.56 43.27 43.66 44.05 45.72 44.71 44.62 45.21 45.61 44.84 45.34 44.72 44.65 44.77 43.82 43.26 42.71 41.97 42.08 42.49 42.46 42.21 42.28 42.65 42.13 41.00 39.92 39.76 39.59 38.91
43.90 38.55 42.03 36.94 35.23 33.16 33.64 37.57 40.95 42.38 42.02 42.43 42.15 42.08 41.21 42.20 43.20 43.85 42.97 43.41 43.90 43.83 43.73 44.60 44.63 44.73 45.08 45.65 44.51 44.36 43.87 43.79 43.80 42.91 42.67 42.83 43.19 45.11 43.33 42.89 41.79 42.00 42.14 42.11 41.27 39.85 39.51 39.60 39.16
47.12 45.55 40.01 38.18 30.79 32.15 34.44 34.32 33.11 36.66 38.55 41.00 40.32 40.65 42.25 42.98 43.59 43.10 42.49 42.43 42.89 44.13 44.53 43.54 44.55 43.65 43.66 45.12 45.12 45.84 43.90 44.47 43.79 43.53 42.60 42.02 42.23 41.91 42.57 42.61 41.90 41.73 41.59 41.49 40.04 39.13 38.84 38.28 38.19
45.84 43.64 41.76 38.53 36.60 32.81 33.12 35.33 41.26 38.67 40.15 39.01 40.37 41.58 41.93 42.40 42.79 43.19 43.68 43.96 44.67 44.45 44.07 43.45 44.02 44.29 44.48 45.42 44.29 44.05 43.00 44.07 42.68 41.23 42.01 41.45 40.82 41.13 41.54 42.66 41.45 41.44 40.55 40.18 39.45 39.52 40.30 38.14 37.07
48.51 44.60 42.00 36.48 35.93 37.76 38.22 33.74 40.89 39.77 39.92 40.75 41.07 42.57 43.50 43.85 44.39 44.01 44.28 44.32 44.17 43.92 43.58 42.77 43.12 44.01 43.30 44.63 44.56 44.32 43.86 42.71 40.86 40.80 40.73 41.01 39.89 40.47 40.92 41.80 41.20 41.06 40.69 39.49 39.35 38.68 40.60 38.33 36.65
MSLP
1011.30 1011.64 1011.66 1012.10 1013.03 1013.54 1012.57 1012.24 1011.32 1010.21 1009.21 1009.70 1008.74 1008.62 1009.59 1010.95 1011.92 1014.07 1014.22 1014.87 1015.58 1016.11 1015.97 1016.14 1016.13 1016.23 1016.41 1016.58 1016.59 1016.61 1016.61 1016.57 1016.70 1016.83 1016.92 1016.93 1017.06 1017.22 1017.34 1017.37 1017.41 1017.40 1017.45 1017.50 1017.48 1017.61 1017.54 1017.59 1017.62
1010.85 1011.33 1011.78 1012.01 1013.08 1013.91 1013.42 1012.56 1011.56 1011.11 1010.59 1010.06 1008.81 1009.08 1009.79 1011.76 1012.71 1014.11 1014.89 1015.52 1016.02 1016.16 1016.11 1016.33 1016.30 1016.38 1016.52 1016.61 1016.64 1016.72 1016.79 1016.81 1016.86 1017.00 1017.12 1017.21 1017.35 1017.53 1017.57 1017.58 1017.66 1017.60 1017.58 1017.52 1017.54 1017.65 1017.60 1017.56 1017.61
1010.66 1010.69 1011.63 1012.42 1013.30 1013.40 1012.82 1013.07 1011.82 1010.97 1010.92 1009.92 1010.12 1009.98 1010.74 1012.68 1013.44 1014.21 1015.07 1015.67 1016.18 1016.23 1016.09 1016.34 1016.43 1016.46 1016.60 1016.73 1016.85 1016.94 1017.00 1017.06 1017.14 1017.30 1017.41 1017.51 1017.62 1017.75 1017.72 1017.67 1017.75 1017.76 1017.65 1017.52 1017.53 1017.66 1017.58 1017.40 1017.51
1010.32 1011.15 1011.78 1012.48 1013.18 1012.38 1011.35 1012.14 1011.44 1010.82 1010.78 1010.18 1009.93 1010.88 1011.66 1012.21 1013.00 1014.09 1015.44 1015.88 1016.44 1016.36 1016.26 1016.31 1016.48 1016.67 1016.83 1016.91 1017.02 1017.12 1017.15 1017.25 1017.41 1017.48 1017.73 1017.87 1017.97 1017.98 1017.83 1017.71 1017.73 1017.74 1017.64 1017.55 1017.50 1017.67 1017.43 1017.29 1017.50
1010.20 1011.43 1012.53 1013.04 1012.84 1012.87 1011.74 1011.55 1012.14 1011.24 1010.78 1010.34 1010.25 1011.62 1012.73 1013.11 1013.31 1014.35 1015.28 1015.84 1016.23 1016.41 1016.43 1016.53 1016.60 1016.73 1016.95 1017.07 1017.20 1017.26 1017.36 1017.42 1017.44 1017.63 1017.77 1017.93 1018.00 1018.07 1017.93 1017.81 1017.83 1017.84 1017.69 1017.53 1017.52 1017.49 1017.30 1017.32 1017.38
1010.80 1011.73 1012.78 1013.78 1013.59 1014.16 1013.30 1013.21 1011.23 1011.86 1011.38 1011.27 1011.35 1011.16 1013.31 1013.71 1013.66 1014.70 1015.22 1015.85 1015.93 1016.17 1016.48 1016.56 1016.74 1016.92 1017.01 1017.21 1017.34 1017.39 1017.45 1017.50 1017.58 1017.66 1017.75 1017.84 1017.83 1017.83 1017.81 1017.79 1017.79 1017.73 1017.62 1017.34 1017.26 1017.22 1017.01 1017.02 1017.22
1011.20 1012.11 1012.43 1012.90 1013.91 1014.33 1014.15 1013.59 1012.91 1011.57 1011.65 1011.64 1011.67 1012.82 1013.93 1014.08 1013.85 1014.49 1015.15 1015.52 1015.84 1016.19 1016.59 1016.82 1016.82 1017.03 1017.18 1017.32 1017.50 1017.53 1017.53 1017.54 1017.59 1017.64 1017.58 1017.64 1017.69 1017.75 1017.65 1017.58 1017.59 1017.65 1017.52 1017.35 1017.06 1017.05 1016.86 1016.70 1017.15
1010.69 1011.73 1011.95 1011.86 1013.08 1013.95 1014.11 1013.39 1013.08 1011.69 1012.59 1012.54 1011.83 1012.65 1013.57 1013.94 1013.97 1014.49 1015.23 1015.93 1016.39 1016.66 1016.84 1017.00 1017.07 1017.13 1017.20 1017.30 1017.30 1017.40 1017.43 1017.47 1017.45 1017.55 1017.52 1017.45 1017.53 1017.63 1017.62 1017.43 1017.28 1017.35 1017.28 1017.09 1017.00 1016.88 1016.64 1016.51 1016.76
1010.10 1011.39 1011.86 1011.94 1012.48 1013.15 1013.46 1012.86 1013.10 1013.28 1013.08 1013.34 1013.08 1012.76 1013.22 1013.66 1014.27 1014.89 1015.70 1016.74 1017.18 1017.45 1017.82 1017.53 1017.58 1017.79 1017.67 1017.52 1017.35 1017.30 1017.33 1017.36 1017.46 1017.53 1017.50 1017.49 1017.54 1017.62 1017.56 1017.24 1017.16 1017.16 1016.98 1016.84 1016.79 1016.71 1016.58 1016.37 1016.34
1010.03 1011.18 1011.61 1011.11 1011.44 1012.77 1013.12 1012.74 1012.46 1013.18 1013.56 1013.42 1014.00 1014.55 1014.61 1014.94 1015.66 1016.00 1017.02 1017.66 1018.17 1018.13 1018.19 1018.20 1018.03 1018.00 1017.99 1017.55 1017.68 1017.78 1017.64 1017.46 1017.40 1017.38 1017.30 1017.29 1017.36 1017.44 1017.37 1017.00 1016.81 1016.77 1016.72 1016.72 1016.62 1016.48 1016.26 1016.20 1016.05
1009.68 1010.56 1011.27 1012.04 1012.41 1012.53 1012.98 1013.16 1013.04 1013.55 1014.32 1014.25 1014.55 1015.52 1015.76 1015.77 1016.67 1017.10 1018.17 1018.78 1019.11 1019.18 1018.81 1018.79 1018.51 1018.38 1017.98 1017.78 1017.67 1017.98 1017.99 1017.81 1017.56 1017.48 1017.38 1017.21 1017.17 1017.17 1017.09 1016.94 1016.76 1016.74 1016.60 1016.48 1016.29 1016.18 1016.03 1015.89 1015.86
1009.42 1009.80 1010.48 1012.26 1012.78 1012.52 1012.44 1013.05 1014.05 1014.32 1014.91 1015.12 1015.58 1016.37 1016.60 1016.92 1017.62 1018.60 1019.18 1019.54 1020.06 1020.00 1019.91 1019.75 1019.33 1018.85 1018.38 1018.02 1017.92 1017.80 1017.68 1017.58 1017.58 1017.46 1017.31 1017.34 1017.25 1017.09 1016.99 1016.85 1016.72 1016.64 1016.55 1016.44 1016.35 1016.32 1015.99 1015.70 1015.31
1009.02 1009.71 1010.37 1011.56 1012.63 1012.00 1012.56 1013.72 1014.08 1015.48 1015.76 1015.87 1016.29 1016.89 1017.72 1018.33 1018.81 1019.37 1020.02 1020.24 1020.57 1020.75 1020.72 1020.18 1019.77 1019.29 1019.10 1018.73 1018.34 1018.00 1017.73 1017.76 1017.73 1017.80 1017.94 1017.59 1017.48 1017.43 1017.03 1016.76 1016.72 1016.90 1016.85 1016.70 1016.47 1016.38 1016.11 1015.80 1015.24
1008.59 1009.94 1010.74 1011.81 1012.22 1012.44 1012.53 1014.24 1014.43 1016.50 1016.54 1016.89 1017.20 1017.98 1018.64 1019.17 1019.79 1020.08 1020.72 1020.98 1020.89 1020.95 1020.65 1020.23 1019.79 1019.67 1019.32 1019.03 1018.92 1018.62 1018.44 1018.37 1018.36 1018.67 1018.61 1018.23 1018.09 1017.88 1017.63 1017.45 1017.53 1017.28 1017.02 1016.86 1016.66 1016.61 1016.35 1016.19 1015.68
1009.16 1010.95 1012.30 1012.41 1011.80 1012.68 1012.70 1015.02 1015.49 1015.95 1016.45 1017.41 1018.20 1018.99 1019.46 1020.01 1020.24 1020.54 1020.95 1021.08 1021.18 1021.25 1021.02 1020.41 1019.99 1019.97 1019.53 1019.31 1019.09 1018.94 1018.83 1019.10 1019.26 1019.25 1019.04 1018.80 1018.74 1018.62 1018.34 1018.30 1018.29 1018.22 1017.85 1017.46 1017.05 1016.81 1016.33 1015.91 1015.39
1009.71 1010.92 1012.57 1012.86 1012.04 1012.53 1012.74 1015.39 1015.89 1016.17 1016.55 1017.76 1018.74 1019.45 1020.17 1020.17 1020.66 1021.03 1021.25 1021.47 1021.54 1021.49 1021.29 1020.93 1020.68 1020.37 1020.15 1019.88 1019.51 1019.29 1019.39 1019.41 1019.55 1019.53 1019.45 1019.29 1019.19 1019.08 1018.94 1019.07 1019.38 1019.02 1018.51 1018.22 1017.98 1017.80 1017.25 1016.84 1016.35
1009.97 1010.97 1011.65 1012.36 1011.67 1011.77 1013.09 1015.22 1015.78 1016.14 1016.64 1017.59 1018.39 1019.39 1020.13 1020.47 1020.76 1021.17 1021.55 1021.73 1022.02 1022.09 1022.07 1021.82 1021.37 1021.03 1020.74 1020.32 1020.00 1019.88 1019.92 1020.04 1020.21 1020.07 1019.93 1019.88 1019.71 1019.61 1019.67 1020.00 1020.06 1019.78 1019.38 1018.97 1018.73 1018.56 1018.41 1017.76 1017.20
1010.07 1010.33 1010.67 1011.02 1011.53 1011.91 1013.11 1014.28 1015.16 1016.05 1016.74 1017.59 1018.50 1019.28 1020.21 1020.59 1021.18 1021.54 1021.95 1022.10 1022.53 1022.72 1022.64 1022.46 1022.10 1021.70 1021.24 1020.76 1020.45 1020.36 1020.32 1020.48 1020.76 1020.76 1020.64 1020.67 1020.39 1020.34 1020.26 1020.41 1020.46 1020.25 1019.96 1019.74 1019.57 1019.19 1018.86 1018.48 1018.14
1009.55 1009.71 1009.87 1010.49 1010.27 1011.73 1013.03 1013.93 1014.54 1015.67 1016.62 1017.52 1018.50 1019.38 1020.26 1020.96 1021.45 1021.66 1022.10 1022.58 1022.95 1023.22 1023.19 1023.08 1022.75 1022.41 1021.87 1021.40 1021.43 1021.34 1021.35 1021.57 1021.54 1021.37 1021.40 1021.41 1021.38 1021.17 1021.08 1020.93 1020.83 1020.63 1020.64 1020.62 1020.31 1020.00 1019.56 1018.83 1018.38
1009.16 1009.42 1009.55 1009.36 1009.53 1011.30 1013.15 1014.24 1015.07 1015.60 1016.10 1016.80 1017.97 1019.24 1020.16 1021.06 1021.77 1022.40 1022.86 1023.22 1023.49 1023.80 1023.86 1023.70 1023.38 1023.01 1022.68 1022.30 1022.13 1022.07 1022.03 1022.39 1022.30 1022.10 1022.08 1022.28 1022.11 1022.15 1021.99 1021.91 1021.90 1021.72 1021.58 1021.36 1021.03 1020.80 1020.48 1020.05 1019.64
1008.52 1008.76 1009.00 1009.60 1010.97 1012.36 1013.55 1015.45 1015.47 1015.75 1016.35 1017.11 1018.02 1018.74 1019.90 1020.79 1021.72 1022.59 1023.19 1023.66 1023.91 1024.11 1024.25 1024.18 1023.92 1023.69 1023.34 1023.08 1022.74 1022.65 1022.59 1022.79 1022.69 1022.89 1023.01 1023.01 1022.97 1023.01 1022.79 1022.72 1022.75 1022.64 1022.43 1022.25 1022.06 1021.88 1021.60 1021.29 1020.71
1007.89 1007.12 1007.83 1009.17 1010.46 1012.17 1012.42 1014.67 1015.31 1015.55 1016.31 1017.07 1017.98 1018.91 1019.96 1020.79 1021.65 1022.38 1023.16 1023.77 1024.03 1024.33 1024.40 1024.43 1024.31 1024.13 1023.93 1023.54 1023.56 1023.67 1023.85 1023.96 1024.10 1024.03 1023.91 1023.74 1023.58 1023.52 1023.44 1023.40 1023.40 1023.33 1023.15 1023.10 1022.91 1022.59 1022.43 1022.09 1021.87
1006.68 1006.18 1007.22 1008.31 1010.03 1011.26 1012.70 1013.53 1013.73 1015.05 1016.27 1016.77 1017.87 1019.00 1020.04 1020.79 1021.45 1022.25 1022.98 1023.66 1024.12 1024.42 1024.59 1024.58 1024.53 1024.54 1024.43 1024.39 1024.27 1024.36 1024.58 1024.57 1024.53 1024.52 1024.33 1024.30 1024.23 1024.03 1023.99 1023.96 1023.97 1023.90 1023.78 1023.71 1023.54 1023.29 1023.10 1023.00 1022.98
1005.64 1006.20 1006.83 1008.18 1009.98 1011.43 1011.72 1012.78 1013.58 1013.75 1013.33 1016.24 1017.79 1018.78 1019.67 1020.64 1021.40 1022.05 1022.81 1023.45 1024.03 1024.35 1024.45 1024.55 1024.62 1024.65 1024.58 1024.58 1024.61 1024.97 1025.16 1025.19 1025.20 1025.11 1025.02 1024.91 1024.79 1024.69 1024.49 1024.36 1024.44 1024.42 1024.32 1024.21 1024.06 1023.97 1023.74 1023.53 1023.34
1005.22 1006.53 1007.51 1009.09 1010.75 1011.27 1011.31 1012.69 1011.96 1012.27 1013.38 1014.99 1016.85 1018.68 1019.70 1020.40 1021.26 1022.03 1022.80 1023.44 1024.06 1024.34 1024.53 1024.61 1024.72 1024.89 1024.86 1024.81 1024.96 1025.11 1025.26 1025.27 1025.31 1025.34 1025.29 1025.20 1025.09 1025.04 1024.98 1024.78 1024.74 1024.47 1024.34 1024.16 1024.11 1024.06 1023.82 1023.58 1023.48
1005.03 1006.08 1007.53 1008.82 1010.08 1010.62 1011.12 1012.51 1012.70 1012.34 1012.92 1015.36 1017.19 1018.49 1019.45 1020.09 1021.11 1021.90 1022.46 1023.05 1023.82 1024.08 1024.30 1024.58 1024.86 1024.96 1025.06 1025.15 1025.24 1025.18 1025.12 1025.18 1025.34 1025.41 1025.41 1025.41 1025.32 1025.21 1025.05 1024.85 1024.73 1024.48 1024.27 1024.12 1023.87 1023.71 1023.70 1023.59 1023.46
1004.83 1005.60 1005.94 1007.82 1009.36 1010.55 1012.27 1013.31 1013.95 1014.21 1014.34 1015.35 1017.12 1018.48 1019.72 1020.84 1021.05 1021.79 1022.43 1022.75 1023.35 1023.78 1024.06 1024.43 1024.83 1025.01 1025.16 1025.31 1025.39 1025.34 1025.36 1025.51 1025.68 1025.70 1025.47 1025.44 1025.35 1025.10 1025.11 1024.89 1024.86 1024.68 1024.41 1024.19 1023.82 1023.84 1023.89 1023.77 1023.58
1004.97 1005.61 1006.67 1008.05 1009.96 1011.32 1012.56 1013.74 1014.06 1015.28 1015.97 1016.57 1017.77 1018.39 1019.44 1020.43 1021.01 1021.86 1022.68 1023.02 1023.56 1023.87 1024.15 1024.44 1024.80 1025.12 1025.18 1025.27 1025.59 1025.75 1025.73 1025.72 1025.78 1025.82 1025.93 1025.78 1025.69 1025.46 1025.24 1024.99 1024.93 1024.79 1024.56 1024.19 1023.86 1024.05 1024.07 1023.95 1023.64
1007.05 1008.20 1008.83 1009.43 1010.71 1011.61 1013.58 1014.74 1014.61 1015.27 1015.57 1016.54 1017.73 1018.69 1019.47 1020.36 1020.72 1021.37 1022.63 1023.36 1023.61 1024.27 1024.18 1024.52 1024.98 1025.26 1025.29 1025.30 1025.58 1025.74 1025.96 1025.96 1025.91 1026.10 1026.15 1025.95 1025.89 1025.70 1025.44 1025.18 1025.05 1024.95 1024.81 1024.41 1024.23 1024.12 1023.98 1023.88 1023.53
1009.10 1010.21 1010.74 1011.82 1012.83 1013.33 1013.96 1015.77 1015.65 1016.51 1017.42 1018.30 1018.96 1019.30 1019.86 1020.79 1021.68 1021.34 1022.19 1023.55 1023.99 1024.57 1024.62 1024.66 1025.36 1025.36 1025.35 1025.32 1025.53 1025.65 1026.02 1026.28 1026.25 1026.31 1026.30 1026.21 1026.09 1025.79 1025.54 1025.26 1025.05 1024.92 1024.78 1024.55 1024.43 1024.12 1023.78 1023.59 1023.21
Wind_Speed
3 6 2 3 4 5 7 2 4 10 7 2 5 8 12 12 2 3 6 10 14 10 10 12 15 16 16 16 16 15 13 13 14 14 13 12 11 13 13 11 10 10 9 8 8 8 7 7 7
2 5 2 2 6 3 4 3 12 12 6 7 16 11 10 6 9 13 7 12 10 9 7 7 16 17 16 16 15 14 13 13 13 12 12 11 11 11 10 8 7 8 7 6 6 5 5 5 5
2 2 3 5 4 5 5 5 13 13 10 4 5 5 5 5 15 7 12 15 10 8 8 10 15 15 16 16 15 13 12 11 11 12 11 10 10 9 7 6 6 5 4 3 3 2 2 3 4
2 4 5 5 4 5 6 22 8 8 2 6 9 8 6 9 6 11 16 13 11 8 7 13 15 14 15 15 14 13 11 11 10 9 9 8 7 6 4 4 4 3 1 1 1 3 4 4 4
3 4 4 3 1 6 15 15 6 11 7 12 11 10 7 11 21 21 18 15 13 8 6 8 14 14 14 14 13 12 10 9 10 8 7 5 4 2 2 2 1 1 2 3 4 6 6 6 3
4 3 5 2 6 9 8 3 22 15 15 17 15 16 6 19 21 16 16 13 11 12 7 7 13 13 12 12 12 10 9 7 8 8 7 6 5 5 5 5 5 5 7 7 7 8 9 8 4
6 3 4 8 10 10 4 2 4 13 11 5 7 10 8 17 17 16 14 13 11 10 7 6 6 10 12 12 10 9 8 7 8 7 8 7 7 7 7 7 9 10 9 10 9 9 11 10 5
5 5 5 2 11 8 9 6 6 15 7 3 5 6 5 18 18 15 13 11 8 6 5 5 5 6 6 7 13 12 11 10 9 9 9 9 9 9 8 10 11 12 12 12 12 11 12 11 7
3 3 3 1 10 8 13 6 2 6 7 3 5 6 14 18 15 13 11 8 6 5 5 3 3 1 2 2 7 12 14 12 11 9 9 7 4 5 7 10 13 14 14 14 13 12 12 11 11
5 4 4 3 22 16 12 10 11 8 6 4 7 19 19 20 16 17 15 11 11 12 9 8 3 2 4 4 3 3 4 4 5 6 6 5 5 4 7 10 14 15 16 14 13 12 12 10 5
3 5 11 12 16 18 14 4 3 15 5 5 13 13 15 20 16 17 13 13 9 8 9 10 9 6 3 2 3 1 3 3 3 5 5 5 4 4 4 4 3 3 7 5 6 5 4 5 5
0 7 10 16 14 12 10 9 15 13 9 14 14 13 16 17 16 13 11 11 10 10 11 9 7 6 7 5 3 4 3 4 4 5 6 4 3 4 3 2 3 3 3 5 4 4 6 6 7
5 6 18 18 10 16 17 12 15 14 13 14 16 17 15 14 14 13 10 10 8 8 7 7 8 7 6 5 4 4 5 5 6 5 8 5 4 4 4 4 3 3 3 3 5 5 5 5 7
2 15 21 17 16 15 23 10 6 6 13 14 16 15 13 13 11 11 10 8 9 8 9 7 8 8 5 5 5 5 6 7 8 8 7 9 7 7 5 6 7 7 7 6 5 5 4 4 4
7 18 12 16 12 11 16 6 8 12 15 14 14 11 12 11 11 11 8 9 7 6 7 10 9 9 9 7 6 7 7 7 7 6 9 11 10 8 8 7 7 8 8 9 8 9 8 8 8
8 8 9 12 16 12 5 5 8 11 15 13 11 10 9 11 11 9 9 8 8 7 10 9 9 9 8 7 6 6 6 7 7 7 7 10 11 10 9 8 9 8 7 7 8 8 9 8 7
4 8 5 10 11 9 4 8 14 11 13 13 12 10 9 9 10 8 9 8 8 7 7 9 9 9 7 7 5 6 7 8 6 7 7 7 10 11 10 8 8 8 7 8 7 7 7 7 9
4 2 4 12 16 5 8 7 18 15 14 12 10 9 7 9 9 9 9 9 7 7 7 7 7 9 7 5 4 6 7 7 8 8 7 10 9 12 8 8 8 7 7 8 8 9 8 4 9
5 3 6 9 10 7 7 13 22 17 13 13 10 10 9 9 7 9 9 8 8 7 8 7 8 8 6 4 3 5 6 5 7 8 13 13 12 13 12 8 10 9 9 9 10 8 9 7 11
7 7 7 7 9 8 11 12 9 16 15 16 16 13 13 10 8 8 8 8 7 6 6 7 7 7 6 4 3 3 3 4 3 6 11 12 13 13 11 11 10 11 8 10 11 12 8 4 8
12 7 6 7 9 8 15 3 9 6 6 13 13 15 14 14 12 9 9 7 6 6 5 6 5 6 6 7 4 4 4 5 7 7 8 10 13 12 12 12 10 9 8 8 8 9 10 7 5
10 12 14 11 7 8 6 7 8 8 10 13 15 14 14 13 10 9 10 6 7 5 5 5 6 6 7 7 6 7 6 7 4 4 6 7 12 12 12 11 10 9 8 9 9 8 7 6 7
13 18 9 11 7 7 5 5 7 13 7 13 14 15 14 13 13 12 11 9 7 6 5 4 6 6 6 7 7 6 7 4 4 4 7 7 6 10 10 10 9 9 7 9 10 10 9 7 6
10 6 3 3 5 3 11 10 5 17 27 15 15 17 17 15 12 10 10 9 7 5 5 5 5 4 6 6 8 7 7 6 4 5 4 4 3 4 5 6 5 5 4 5 6 5 6 5 4
5 5 3 5 1 7 11 7 6 12 11 21 22 19 16 14 12 13 12 9 7 7 6 5 5 4 6 7 7 7 6 6 6 4 3 4 3 3 5 4 5 3 4 4 4 4 4 4 4
10 11 9 9 7 9 4 6 3 14 13 19 18 17 15 12 11 12 10 9 9 7 7 6 5 4 6 6 6 5 6 4 4 5 3 3 3 2 3 4 4 5 5 5 4 2 3 6 4
6 4 11 6 2 2 4 3 9 10 19 23 21 16 14 13 13 12 9 9 8 7 6 7 5 4 6 6 5 5 6 6 5 5 4 3 4 4 3 3 4 5 6 6 6 4 7 9 7
4 2 0 3 6 6 2 3 8 13 18 18 16 18 15 13 13 10 7 7 5 6 6 7 6 5 6 7 5 4 5 6 6 5 5 6 5 6 5 2 4 5 6 5 5 4 5 7 6
7 5 6 4 4 3 2 5 4 13 18 18 18 16 15 13 12 11 8 7 7 4 6 7 6 5 5 5 4 5 5 6 6 6 5 5 5 6 6 4 4 4 6 6 5 4 5 6 8
6 2 4 5 5 2 3 4 4 8 8 9 10 11 12 11 9 11 12 9 7 5 6 7 4 5 5 5 4 5 6 5 6 6 6 5 6 5 6 5 3 4 4 5 5 6 7 7 8
Wind_Direction
164 161 145 99 67 39 297 337 255 30 28 351 116 72 98 38 76 159 73 118 125 138 131 130 125 122 121 123 121 118 117 112 109 103 98 97 94 89 87 87 89 91 87 78 69 58 52 55 66
155 148 79 73 99 123 296 354 67 61 33 4 59 54 43 88 56 113 96 120 130 134 113 123 128 128 129 129 125 122 118 113 112 110 106 100 95 95 94 92 92 96 93 84 70 49 37 24 50
203 232 98 121 110 174 167 30 121 85 48 100 64 14 55 103 124 120 120 134 134 123 120 133 132 132 132 129 123 121 120 118 115 107 111 108 103 99 100 101 97 98 95 90 76 42 7 327 15
145 16 15 64 300 234 220 160 178 133 158 91 135 59 55 131 108 124 137 130 131 124 124 133 135 131 132 128 126 124 122 118 112 107 104 104 106 107 113 120 119 113 80 6 18 310 292 295 3
47 73 58 57 304 31 36 112 55 103 97 77 83 94 72 72 117 132 137 141 140 129 132 132 137 136 133 132 130 129 129 131 136 120 114 122 124 136 166 206 216 259 270 278 293 286 283 295 325
4 90 66 101 81 26 50 342 117 110 105 105 89 92 94 134 128 140 139 143 144 137 140 144 141 138 137 138 135 131 129 135 130 133 151 168 180 198 221 246 250 245 254 254 259 271 279 287 313
127 93 217 158 129 110 124 179 212 117 130 81 113 100 127 137 138 142 140 138 138 136 142 143 139 145 146 144 142 143 147 158 155 168 176 193 210 222 232 249 257 259 256 262 261 267 279 283 319
115 105 304 358 131 132 165 163 150 103 74 351 324 143 145 144 147 135 133 125 123 142 144 143 148 152 155 165 163 169 175 184 183 195 199 205 226 235 246 252 255 258 259 261 263 265 270 283 279
120 63 305 183 113 134 153 157 286 40 86 360 12 84 135 143 130 131 119 102 100 101 71 84 133 172 205 186 185 183 191 194 201 211 224 234 240 249 259 260 263 263 261 258 263 271 276 280 278
106 110 339 56 124 151 164 166 157 137 151 175 83 72 75 79 75 79 71 62 57 55 59 34 345 200 218 199 223 258 230 212 209 213 218 229 236 236 253 253 253 257 262 274 269 273 277 282 276
153 149 125 114 137 141 141 89 19 138 116 24 114 92 77 80 69 70 70 64 47 34 50 25 25 12 11 314 170 243 266 274 253 249 241 237 243 237 242 269 288 279 265 257 269 281 267 264 257
98 123 134 160 166 147 119 127 72 69 84 93 85 82 79 73 74 67 62 60 49 38 36 31 21 16 17 20 18 262 232 226 233 236 247 245 244 267 247 229 276 283 257 272 261 275 285 274 266
178 82 133 145 157 111 106 82 105 87 84 83 85 70 67 76 77 73 64 58 50 44 33 26 23 25 17 18 358 5 16 38 42 24 30 353 324 316 328 343 15 4 336 311 312 300 293 286 288
186 125 135 144 145 127 112 125 88 114 103 82 74 75 72 68 74 76 68 61 48 32 22 16 27 16 13 24 16 47 62 42 48 42 31 28 20 9 9 35 29 13 11 11 8 2 336 269 264
86 110 119 148 139 120 102 34 140 143 112 100 94 88 80 78 68 69 67 58 47 32 26 24 24 8 17 20 27 46 52 64 59 46 34 35 30 22 25 32 28 11 7 9 10 6 358 355 351
101 110 136 224 160 167 99 194 170 150 123 124 119 109 102 98 95 82 76 62 42 37 25 17 16 17 15 16 29 56 49 58 48 44 44 40 40 32 38 35 19 6 16 19 12 7 355 349 355
32 162 171 191 237 150 101 138 184 163 143 146 142 135 121 107 94 86 80 70 50 42 29 17 9 12 8 14 25 45 57 63 38 42 37 23 40 43 50 37 24 13 17 23 14 12 4 340 350
246 171 151 168 210 166 137 186 165 170 158 156 144 128 119 112 112 113 95 77 61 41 35 20 12 12 357 359 29 48 55 58 49 46 34 24 43 42 47 41 28 19 25 22 19 14 4 2 345
247 240 254 226 192 101 165 157 174 170 159 154 148 137 132 121 111 102 93 82 68 38 34 23 20 3 10 5 18 43 58 47 47 43 39 51 44 43 36 36 30 20 31 22 16 3 7 4 357
248 254 259 277 187 103 160 161 154 171 170 161 150 147 142 132 119 106 94 85 77 63 38 31 21 19 15 12 1 48 78 41 46 45 47 54 45 40 41 35 29 26 21 21 19 13 5 357 359
254 220 228 199 88 49 109 25 187 188 141 158 157 148 145 143 138 131 117 107 93 75 57 47 23 16 26 22 25 29 42 40 42 32 45 48 47 44 40 36 32 25 27 20 13 13 16 4 357
252 242 239 157 130 176 191 209 216 193 177 170 158 151 144 142 132 132 132 124 120 112 88 67 53 36 39 32 48 59 67 66 36 38 49 51 47 44 41 37 32 27 26 25 15 12 13 6 17
239 249 192 171 156 114 210 97 260 170 198 183 157 147 147 144 141 142 142 139 134 129 118 100 80 67 54 53 57 62 68 59 45 41 48 38 47 46 44 36 28 26 25 22 17 15 16 23 21
240 238 121 75 128 173 212 181 232 181 202 151 151 153 149 146 145 135 132 135 135 138 121 112 96 85 77 69 65 78 82 70 70 53 54 34 45 43 40 45 41 33 29 29 20 18 17 11 6
189 80 273 292 106 217 196 206 215 205 164 168 157 151 149 147 141 128 130 136 144 140 145 122 106 82 88 81 75 84 88 82 82 76 67 50 34 19 23 36 35 26 19 23 33 28 3 359 3
247 174 188 214 236 249 116 210 277 273 173 137 134 140 144 132 133 135 138 132 138 141 130 130 125 112 96 102 91 84 70 70 60 61 55 32 24 14 29 32 31 16 18 3 22 359 360 359 350
268 187 195 178 238 96 137 156 27 66 119 134 142 138 129 127 128 133 141 140 138 137 128 135 121 109 104 113 96 79 65 66 71 51 47 47 14 352 42 17 25 7 17 3 356 12 12 357 345
320 331 162 51 185 233 18 260 174 153 144 138 136 134 137 133 127 122 127 124 124 131 112 109 124 123 128 131 121 129 94 97 83 60 36 37 13 4 8 336 21 12 359 338 4 31 352 345 329
351 24 348 84 38 122 109 294 235 172 155 141 138 139 144 143 138 124 104 87 118 118 108 113 114 105 98 132 126 127 91 94 76 59 50 38 18 359 6 357 34 16 353 332 9 340 353 325 321
84 34 62 92 346 354 88 293 70 109 105 115 127 132 133 128 119 116 122 122 111 121 82 108 116 96 92 132 116 116 108 98 72 64 42 28 18 355 360 2 25 24 354 351 15 328 338 313 313